{"data":{"norad_id":53801,"epoch":"2026-05-24T21:22:00.816672Z","epoch_age_seconds":94601,"freshness":"FRESH","line1":"1 53801U 22111AE  26144.89028723  .00010155  00000+0  65602-3 0  9993","line2":"2 53801  53.2131 281.7891 0002142  88.7590 271.3648 15.08794739205322","mean_motion":15.08794739,"eccentricity":0.0002142,"inclination_deg":53.2131,"raan_deg":281.7891,"arg_perigee_deg":88.759,"mean_anomaly_deg":271.3648,"bstar":0.00065602,"rev_number":20532,"period_min":95.440417624627,"perigee_km":538.39989757905,"apogee_km":541.36357680606,"semimajor_km":6918.0187371926,"source":"CELESTRAK","updated_at":"2026-05-25T13:38:17.546247Z"}}